Location: Budapest
(47.4979°N, 19.0402°E)
Time: 20:06:03
(UTC+01:00)

Vanguard 2 - Visible Passes

Search period start: 11 December 2017 00:00
Search period end: 21 December 2017 00:00
Orbit: 553 x 2939 km, 32.9° (Epoch: 10 December)

Date Brightness Start Highest point End Pass type
(mag) Time Alt. Az. Time Alt. Az. Time Alt. Az.
11 Dec 9.5 17:39:34 10° SSW 17:41:25 12° S 17:43:09 10° SSE visible
12 Dec 9.5 17:57:25 10° SSW 17:59:12 12° S 18:00:52 10° SSE visible
13 Dec 9.6 18:15:41 10° SSW 18:16:56 11° SSW 18:18:09 10° S visible
14 Dec 9.7 16:23:49 10° SW 16:27:25 16° S 16:30:21 10° SE visible
15 Dec 9.7 16:41:34 10° SW 16:45:12 16° S 16:48:10 10° SSE visible
16 Dec 9.7 16:59:33 10° SW 17:02:57 16° SSW 17:05:47 10° SSE visible
17 Dec 9.9 17:17:46 10° SW 17:20:39 14° SSW 17:23:06 10° SSE visible
18 Dec 10.1 17:36:29 10° SW 17:38:17 11° SSW 17:39:54 10° S visible
